Hamilton, OH

5:40 PM EDT on May 24, 2017 (GMT -0400)
Butler County Regional

Weather History for KHAO - January, 2013

Change the Weather History Date:

Wednesday, January 2, 2013

  Actual Average (KLUK) Record (KLUK)
Temperature  
Mean Temperature 18 °F -  
Max Temperature 27 °F 39 °F 64 °F (2000)
Min Temperature 10 °F 24 °F 3 °F (1968)
Degree Days  
Heating Degree Days 46    
Moisture  
Dew Point 13 °F    
Average Humidity 76    
Maximum Humidity 92    
Minimum Humidity 47    
Precipitation  
Precipitation 0.00 in - - ()
Sea Level Pressure  
Sea Level Pressure 30.24 in    
Wind  
Wind Speed 1 mph (WNW)    
Max Wind Speed 6 mph    
Max Gust Speed -    
Visibility 8 miles    
Events      
Averages and records for this station are not official NWS values.
T = Trace of Precipitation, MM = Missing Value Source: NWS Daily Summary

Daily Weather History Graph

Daily Weather History Graph

Search for Another Location

Airport or City:

Trip Planner

Search our weather history database for the weather conditions in past years. The results will help you decide how hot, cold, wet, or windy it might be!

Date:

Astronomy

Jan. 02, 2013 Rise Set
Actual Time 7:58 AM EST 5:26 PM EST
Civil Twilight 7:28 AM EST 5:56 PM EST
Nautical Twilight 6:54 AM EST 6:30 PM EST
Astronomical Twilight 6:22 AM EST 7:02 PM EST
Moon 10:56 PM EST (1/2) 10:41 AM EST (1/2)
Length of Visible Light 10h 28m
Length of Day
9h 28m
Waning Gibbous, 75% of the Moon is Illuminated
Jan 2
Waning Gibbous
Jan 4
Last Quarter
Jan 11
New
Jan 18
First Quarter
Jan 26
Full

Hourly Weather History & Observations

Time (EST) Temp. Windchill Dew Point Humidity Pressure Visibility Wind Dir Wind Speed Gust Speed Precip Events Conditions
12:38 AM 21.2 °F - 17.6 °F 86% 30.17 in 6.0 mi Calm Calm - N/A   Mostly Cloudy
12:53 AM 21.9 °F - 19.0 °F 89% 30.19 in 6.0 mi Calm Calm - N/A   Overcast
1:00 AM 21.2 °F - 17.6 °F 86% 30.17 in 6.0 mi Calm Calm - N/A   Overcast
1:53 AM 19.9 °F - 16.0 °F 85% 30.18 in 6.0 mi Calm Calm - N/A   Partly Cloudy
2:53 AM 21.9 °F 15.7 °F 18.0 °F 85% 30.19 in 6.0 mi West 4.6 mph - N/A   Clear
3:53 AM 21.0 °F 16.2 °F 18.0 °F 88% 30.22 in 6.0 mi West 3.5 mph - N/A   Clear
4:53 AM 17.1 °F 11.7 °F 15.1 °F 92% 30.22 in 6.0 mi WNW 3.5 mph - N/A   Clear
5:53 AM 16.0 °F - 12.9 °F 88% 30.23 in 5.0 mi Calm Calm - N/A   Partly Cloudy
6:53 AM 12.0 °F - 9.0 °F 88% 30.23 in 4.0 mi Calm Calm - N/A   Clear
7:53 AM 10.0 °F - 6.1 °F 84% 30.25 in 6.0 mi Calm Calm - N/A   Clear
8:53 AM 12.9 °F - 9.0 °F 84% 30.27 in 3.0 mi Calm Calm - N/A   Clear
10:53 AM 19.0 °F - 14.0 °F 81% 30.31 in 6.0 mi Calm Calm - N/A   Haze
11:53 AM 21.9 °F 17.2 °F 16.0 °F 78% 30.30 in 8.0 mi WNW 3.5 mph - N/A   Clear
12:53 PM 25.0 °F 20.7 °F 15.1 °F 66% 30.26 in 9.0 mi WSW 3.5 mph - N/A   Clear
1:53 PM 25.0 °F 18.1 °F 10.0 °F 53% 30.26 in 10.0 mi WNW 5.8 mph - N/A   Clear
2:53 PM 27.0 °F 23.0 °F 10.0 °F 49% 30.25 in 10.0 mi WNW 3.5 mph - N/A   Clear
3:53 PM 27.0 °F - 9.0 °F 47% 30.25 in 10.0 mi Calm Calm - N/A   Clear
4:53 PM 26.1 °F 20.5 °F 10.0 °F 51% 30.25 in 10.0 mi North 4.6 mph - N/A   Clear
6:53 PM 19.9 °F - 10.0 °F 65% 30.28 in 10.0 mi Calm Calm - N/A   Clear
7:53 PM 19.0 °F - 10.0 °F 68% 30.29 in 10.0 mi Calm Calm - N/A   Clear
8:53 PM 17.1 °F - 10.9 °F 77% 30.30 in 10.0 mi Calm Calm - N/A   Clear
9:53 PM 16.0 °F - 10.0 °F 77% 30.29 in 10.0 mi Calm Calm - N/A   Clear
10:53 PM 15.1 °F - 9.0 °F 77% 30.27 in 10.0 mi Calm Calm - N/A   Clear